Wind_Speed
9 10 9 10 10 11 11 11 11 10 10 10 10 10 10 9 9 9 8 8 7 7 7 6 6 6 6 6 6 6 7 7 7 7 7 8 8 7 8 8 9 9 9
11 11 11 12 12 12 13 13 12 12 11 11 11 11 11 10 10 9 9 8 8 7 7 6 6 6 6 6 6 7 7 8 8 8 8 9 9 9 9 9 9 10 10
13 13 13 13 14 15 15 15 14 14 13 13 13 13 12 11 11 10 9 8 8 7 7 6 6 5 5 6 6 6 7 8 8 8 9 9 10 10 10 10 10 10 11
14 14 15 15 16 17 17 17 16 16 15 14 14 13 12 12 11 10 9 8 7 7 6 5 5 5 5 5 6 6 7 7 8 8 8 9 10 11 11 11 11 11 11
15 16 17 17 17 18 18 18 17 16 15 15 14 14 13 12 11 10 9 8 7 6 5 5 4 4 4 5 5 6 6 6 7 7 8 9 10 11 11 11 11 11 11
16 17 17 17 18 18 19 19 18 17 16 15 14 13 12 11 10 9 8 8 7 6 5 4 4 4 4 5 5 5 6 6 7 7 7 9 10 10 11 11 11 11 11
15 16 16 17 18 18 18 18 18 16 15 14 13 13 12 11 10 9 9 8 7 6 5 4 4 4 4 5 5 6 7 7 7 6 7 9 9 10 10 10 11 11 11
14 14 15 16 17 17 18 17 17 16 15 14 13 12 12 11 10 10 9 8 7 6 5 5 5 5 5 5 6 7 7 7 8 8 8 9 10 10 10 10 10 10 11
13 13 13 15 16 16 16 16 16 15 14 13 12 12 12 11 10 9 9 8 7 7 6 6 5 5 5 6 7 8 8 8 8 8 8 10 10 10 10 10 10 10 10
12 12 12 13 15 15 15 15 15 14 14 13 12 12 11 10 10 9 9 8 8 8 7 7 6 6 6 7 8 8 9 8 8 8 8 10 11 11 11 10 10 10 10
11 11 12 12 13 15 15 15 15 14 14 13 12 12 11 11 10 10 10 9 9 9 9 8 8 8 8 8 9 9 10 9 9 9 8 10 11 11 11 10 10 10 10
11 11 11 12 13 14 14 15 14 14 13 13 12 12 11 11 11 11 11 10 10 10 10 10 10 10 11 11 11 11 12 12 11 10 10 11 12 12 11 11 10 10 11
12 12 11 12 13 13 14 14 14 14 13 13 12 12 12 12 12 12 12 12 12 11 12 12 13 13 14 14 14 14 15 15 14 13 12 14 13 13 13 12 12 12 12
14 13 12 13 13 13 13 13 13 13 13 13 13 12 12 13 13 13 13 13 13 14 14 15 16 17 18 18 18 18 19 19 18 17 16 16 16 16 15 15 14 14 14
15 14 14 13 13 13 13 13 13 13 14 13 13 13 13 13 13 13 14 15 16 16 17 19 20 20 21 22 22 23 23 23 23 21 20 20 19 18 18 17 17 17 18
16 15 15 14 14 14 14 14 14 14 14 14 14 14 15 15 15 15 16 17 18 19 21 22 23 24 25 26 26 27 28 28 28 27 25 24 23 22 21 21 21 21 21
16 15 15 15 15 15 15 15 16 16 15 16 16 16 17 17 17 18 19 20 21 23 24 25 26 27 28 29 30 31 32 33 32 32 30 28 26 26 25 25 25 25 25
17 16 16 15 15 16 16 17 18 18 18 18 19 19 19 20 20 21 22 23 24 25 26 27 28 30 31 33 34 35 36 36 35 35 34 32 29 28 29 29 29 28 28
19 17 18 17 17 17 18 18 19 20 20 21 21 21 22 23 24 25 25 25 27 28 29 31 32 33 35 36 37 38 38 38 37 37 36 35 33 32 31 31 32 31 31
21 20 20 20 19 19 19 20 21 22 23 23 23 24 25 27 28 29 29 29 30 31 32 33 34 35 35 35 36 36 35 35 34 34 35 36 36 35 34 34 34 34 35
23 21 21 21 21 22 22 23 24 25 26 27 27 27 27 28 30 32 32 33 33 34 35 35 35 34 34 33 32 32 31 30 30 30 33 35 36 38 38 38 38 38 38
24 24 23 23 24 25 25 26 27 27 28 29 29 29 30 31 32 33 33 34 36 37 36 35 33 31 30 31 30 30 29 29 28 30 31 31 34 36 38 40 40 41 40
26 26 25 25 25 27 28 29 30 30 29 30 31 32 33 33 33 33 34 36 37 37 34 33 30 30 30 29 28 29 30 29 30 31 31 33 34 35 36 39 41 42 43
27 27 27 27 27 28 30 30 31 32 33 33 33 33 33 33 34 35 36 36 34 33 32 31 31 32 32 32 32 33 32 32 33 33 34 36 37 38 39 41 43 45 47
28 28 28 27 28 29 31 32 33 35 36 36 36 35 35 34 34 36 37 35 33 33 32 32 33 33 35 36 36 37 37 37 38 38 38 39 41 43 44 45 47 49 51
28 29 30 29 30 32 34 35 36 38 39 39 40 38 37 37 37 37 37 36 35 35 35 35 36 37 38 39 40 40 40 41 42 43 44 44 45 47 48 50 51 53 56
Wind_Direction
227 224 221 219 218 215 216 220 224 229 234 240 244 246 246 249 253 257 263 268 273 276 275 275 278 280 281 283 288 291 291 288 286 285 286 286 285 284 284 283 284 284 284
241 239 235 232 231 228 226 228 231 235 240 245 248 251 251 253 258 264 269 273 276 278 280 283 285 287 289 292 294 296 296 294 291 291 289 287 286 284 282 280 283 284 284
250 247 244 241 239 236 233 233 234 237 241 247 250 253 255 259 264 268 271 273 277 281 285 287 289 291 295 299 299 299 299 297 296 295 291 290 290 288 285 282 283 284 284
256 253 249 246 242 239 237 236 238 239 241 245 250 255 259 263 266 268 270 272 276 278 279 283 289 293 298 301 301 301 302 302 301 299 293 293 294 292 289 287 286 285 286
263 259 254 250 246 243 239 239 239 240 243 247 251 256 260 263 264 265 267 270 271 271 274 280 287 292 299 303 304 304 305 306 305 304 301 299 298 297 294 293 293 288 288
270 264 258 253 249 246 242 240 239 241 244 248 252 256 259 260 260 261 261 264 265 266 270 275 281 289 297 305 308 307 309 311 309 310 306 305 305 303 301 299 297 293 291
276 268 260 253 249 245 242 241 240 241 244 247 250 254 257 257 257 256 257 258 259 262 264 270 278 290 299 307 313 314 313 312 313 317 314 312 313 310 307 304 299 296 293
277 269 259 254 249 244 241 240 240 240 242 246 249 253 254 254 254 253 253 252 255 259 263 270 281 294 301 307 313 317 317 314 313 314 315 315 316 314 310 305 301 297 293
275 267 258 253 247 241 238 239 239 240 243 246 249 251 252 252 251 250 250 251 254 257 263 271 282 293 301 306 312 315 316 314 316 318 318 313 316 316 313 307 301 296 292
276 267 258 250 243 238 236 238 238 239 242 244 245 247 248 248 248 247 249 251 253 257 264 271 282 292 299 304 310 314 315 314 316 319 319 312 314 314 311 306 299 293 289
276 267 258 249 243 239 238 237 236 237 239 241 241 242 244 247 248 250 250 251 254 261 267 272 279 288 295 300 304 307 309 311 314 309 304 304 309 308 306 304 298 292 288
280 272 260 251 243 240 240 238 236 236 237 237 237 239 243 247 250 253 253 254 258 264 269 275 281 286 292 295 297 301 302 304 306 309 300 294 300 302 300 299 297 294 289
276 272 261 253 247 242 240 237 234 235 236 237 238 241 246 250 253 256 258 261 264 269 273 279 283 286 290 292 294 296 297 297 297 300 295 293 293 297 297 295 293 293 291
269 268 264 256 249 243 240 238 236 237 238 241 242 245 251 255 259 262 265 268 272 276 279 283 286 288 289 291 292 293 294 296 295 295 293 292 292 292 292 291 291 291 290
264 267 265 253 250 246 243 241 241 243 244 246 247 251 256 261 266 271 274 275 278 281 284 285 287 288 289 289 291 293 293 293 292 291 290 289 289 287 287 287 287 287 287
258 264 264 259 253 249 248 248 247 248 250 252 254 259 263 265 269 273 276 278 281 283 286 288 288 289 289 289 289 289 289 289 289 288 287 286 285 284 284 283 284 283 283
252 260 262 259 255 253 253 253 253 255 259 261 262 264 266 269 272 274 276 279 282 283 285 288 289 289 289 287 286 285 286 286 286 285 283 282 282 283 282 281 281 281 281
248 255 258 257 255 254 254 256 258 261 263 266 265 266 269 271 272 274 276 279 281 283 285 288 289 287 288 288 286 285 284 283 283 281 280 280 279 280 280 279 279 279 279
241 245 251 253 253 254 256 259 263 265 267 267 265 267 271 273 272 273 275 280 282 282 284 287 289 287 289 290 288 284 283 281 280 278 277 278 277 276 276 277 278 276 277
236 240 247 251 252 255 259 262 264 265 268 268 272 272 274 273 272 272 274 279 283 284 286 287 289 290 291 294 292 288 286 285 281 278 275 274 274 275 274 275 275 276 277
241 244 248 252 256 258 261 263 265 267 268 270 272 274 277 278 276 276 279 281 284 285 287 290 290 294 292 295 296 294 292 286 282 278 277 275 274 275 273 272 273 275 276
240 245 248 253 255 258 260 261 264 265 267 270 272 275 278 279 281 278 281 282 284 286 287 291 293 297 296 296 296 294 292 286 283 279 278 276 274 274 273 272 273 274 275
243 246 251 253 257 260 263 264 265 266 269 273 274 278 281 282 281 283 285 285 285 288 290 292 297 298 297 294 293 293 290 286 282 280 277 275 275 276 276 274 275 275 275
244 246 249 254 258 261 265 267 270 273 273 276 279 281 284 286 285 286 288 288 291 293 297 297 297 299 296 294 293 292 289 286 284 281 278 276 275 276 277 276 275 275 274
250 251 253 256 261 265 269 272 274 277 279 280 280 282 284 288 289 290 293 291 292 295 297 299 300 298 296 293 292 291 287 285 284 282 278 276 275 275 276 276 274 274 274
255 257 260 261 263 268 274 276 276 279 282 282 285 287 289 291 293 294 294 295 297 297 296 297 296 295 293 291 291 289 288 286 282 280 278 276 275 275 275 275 274 273 273
Height
5897 5897 5898 5899 5900 5900 5900 5901 5902 5902 5903 5904 5904 5905 5905 5905 5905 5905 5905 5904 5904 5904 5903 5903 5902 5902 5902 5902 5901 5901 5901 5901 5901 5901 5901 5901 5901 5901 5901 5901 5902 5902 5902
5896 5896 5897 5898 5898 5899 5899 5900 5901 5901 5902 5903 5903 5904 5904 5904 5904 5904 5904 5904 5903 5903 5903 5902 5902 5902 5901 5901 5901 5901 5900 5900 5900 5900 5900 5900 5900 5900 5900 5901 5901 5901 5901
5894 5895 5896 5896 5897 5897 5898 5898 5899 5900 5900 5901 5902 5903 5903 5903 5903 5903 5903 5903 5902 5902 5902 5901 5901 5901 5901 5900 5900 5900 5900 5900 5900 5900 5899 5899 5899 5899 5899 5899 5899 5899 5900
5892 5893 5894 5894 5895 5895 5896 5896 5897 5898 5899 5899 5900 5901 5902 5902 5902 5902 5902 5901 5901 5901 5900 5900 5900 5900 5900 5900 5900 5900 5900 5900 5899 5899 5899 5898 5898 5898 5898 5898 5898 5898 5898
5891 5891 5891 5892 5893 5893 5893 5894 5895 5896 5897 5898 5899 5900 5900 5900 5900 5900 5900 5900 5900 5900 5899 5899 5899 5899 5899 5899 5899 5899 5899 5899 5899 5898 5898 5898 5897 5897 5897 5897 5897 5897 5897
5889 5889 5889 5889 5890 5890 5891 5892 5893 5894 5895 5896 5897 5898 5899 5899 5899 5899 5899 5899 5899 5898 5898 5898 5899 5899 5899 5899 5898 5898 5898 5898 5897 5897 5897 5897 5896 5896 5896 5895 5895 5895 5895
5887 5886 5886 5887 5887 5888 5889 5890 5891 5892 5893 5894 5895 5896 5897 5897 5897 5897 5897 5898 5897 5897 5897 5898 5898 5898 5898 5898 5897 5897 5897 5896 5896 5896 5895 5895 5894 5894 5894 5894 5893 5893 5893
5885 5884 5884 5884 5885 5886 5887 5888 5889 5890 5892 5893 5894 5895 5895 5896 5896 5896 5896 5896 5896 5896 5896 5897 5897 5897 5897 5897 5896 5896 5895 5895 5895 5895 5894 5893 5893 5892 5892 5892 5891 5891 5891
5882 5882 5882 5882 5883 5884 5885 5886 5887 5889 5890 5891 5892 5893 5894 5894 5895 5895 5895 5895 5895 5895 5895 5896 5896 5896 5896 5896 5895 5894 5894 5893 5893 5893 5892 5891 5891 5891 5890 5890 5889 5889 5889
5880 5880 5880 5880 5881 5882 5883 5884 5885 5887 5888 5889 5890 5891 5892 5893 5893 5893 5894 5894 5894 5894 5894 5895 5895 5895 5895 5894 5894 5893 5892 5892 5892 5891 5891 5890 5890 5889 5888 5887 5887 5887 5887
5878 5878 5878 5878 5879 5880 5881 5882 5883 5885 5886 5887 5888 5889 5890 5891 5892 5892 5892 5893 5893 5893 5893 5893 5893 5893 5893 5893 5892 5892 5891 5890 5890 5889 5889 5888 5888 5887 5886 5885 5885 5884 5884
5875 5875 5876 5876 5877 5878 5879 5880 5881 5883 5884 5885 5886 5888 5889 5890 5890 5891 5891 5891 5892 5892 5892 5892 5892 5892 5891 5891 5890 5890 5889 5888 5888 5888 5886 5886 5886 5885 5884 5883 5882 5882 5882
5873 5873 5874 5874 5875 5876 5877 5878 5879 5881 5882 5884 5885 5886 5887 5888 5889 5889 5890 5890 5890 5890 5890 5890 5890 5890 5890 5889 5888 5888 5887 5886 5886 5886 5885 5884 5883 5882 5882 5881 5880 5879 5879
5870 5871 5871 5872 5873 5874 5876 5877 5878 5879 5881 5882 5883 5884 5885 5886 5887 5888 5888 5888 5889 5889 5889 5889 5888 5888 5887 5887 5886 5885 5884 5883 5882 5883 5882 5881 5880 5880 5879 5878 5877 5877 5876
5868 5868 5868 5868 5870 5872 5873 5875 5877 5878 5879 5880 5881 5882 5883 5884 5885 5886 5886 5886 5886 5887 5887 5886 5886 5885 5885 5884 5883 5882 5881 5880 5879 5879 5879 5878 5877 5876 5876 5875 5874 5873 5873
5865 5866 5866 5867 5868 5870 5871 5873 5874 5876 5877 5878 5879 5880 5881 5882 5882 5883 5883 5883 5883 5884 5883 5883 5883 5882 5881 5880 5880 5878 5877 5876 5875 5874 5874 5873 5873 5872 5871 5871 5870 5869 5869
5860 5862 5864 5865 5866 5867 5869 5870 5872 5873 5874 5876 5877 5878 5878 5878 5879 5879 5880 5880 5880 5880 5879 5879 5878 5878 5877 5876 5875 5874 5873 5871 5869 5868 5867 5867 5867 5867 5866 5865 5865 5864 5863
5857 5859 5860 5862 5863 5865 5866 5867 5869 5870 5871 5872 5873 5874 5874 5875 5875 5875 5876 5876 5876 5875 5875 5874 5873 5873 5872 5870 5869 5868 5867 5865 5864 5862 5860 5860 5861 5861 5860 5859 5858 5858 5857
5853 5855 5857 5858 5860 5861 5863 5864 5865 5866 5867 5867 5868 5869 5870 5870 5870 5870 5870 5871 5870 5870 5869 5868 5868 5867 5866 5864 5861 5860 5859 5857 5856 5854 5853 5852 5853 5853 5852 5852 5851 5850 5850
5849 5851 5852 5854 5855 5857 5859 5860 5861 5862 5863 5863 5863 5864 5865 5865 5864 5864 5864 5864 5864 5864 5863 5862 5861 5859 5858 5856 5853 5852 5851 5850 5848 5847 5846 5845 5844 5844 5844 5844 5843 5842 5842
5844 5846 5847 5849 5851 5853 5854 5856 5857 5858 5858 5858 5858 5859 5859 5859 5858 5858 5858 5857 5857 5856 5856 5855 5853 5852 5850 5848 5846 5844 5843 5842 5841 5840 5839 5838 5837 5837 5836 5835 5835 5834 5833
5839 5841 5843 5845 5847 5848 5849 5850 5851 5852 5852 5852 5852 5853 5853 5852 5851 5851 5850 5850 5849 5848 5848 5847 5846 5844 5842 5841 5839 5837 5836 5835 5834 5832 5831 5831 5830 5829 5827 5826 5826 5825 5824
5835 5837 5839 5840 5842 5843 5844 5844 5845 5845 5846 5846 5846 5847 5846 5844 5844 5843 5842 5842 5841 5840 5840 5839 5838 5837 5835 5834 5831 5830 5829 5828 5827 5826 5824 5823 5822 5821 5819 5818 5816 5815 5814
5830 5832 5834 5835 5837 5838 5839 5839 5839 5840 5840 5840 5840 5840 5838 5837 5837 5836 5835 5834 5833 5832 5832 5831 5831 5829 5827 5826 5824 5823 5821 5819 5818 5817 5816 5815 5813 5811 5810 5808 5806 5804 5802
5825 5827 5828 5830 5831 5832 5833 5833 5833 5833 5833 5833 5832 5831 5831 5830 5829 5828 5828 5826 5825 5825 5824 5823 5823 5821 5819 5817 5815 5814 5811 5810 5809 5807 5806 5805 5803 5801 5799 5797 5794 5792 5790
5821 5822 5823 5824 5826 5827 5827 5827 5827 5827 5826 5825 5825 5824 5824 5822 5822 5820 5819 5818 5818 5816 5816 5815 5814 5812 5810 5808 5806 5804 5802 5800 5798 5797 5795 5793 5792 5789 5787 5784 5781 5779 5776